This is the latest recevied weather packets stored in our database for station/object DL9GRB-13. If no packets are shown the sender has not sent any weather packets the latest 10 day(s).
| Time | Temp. | Humidity | Pressure | Rain* | Wind** | Luminosity | Snow |
|---|---|---|---|---|---|---|---|
| 1778341569 | 17.22° C | 53% | 1018 hPa | 0 mm | - | 219 W/m² | - |
| 1778341389 | 17.22° C | 53% | 1017.9 hPa | 0 mm | - | 215 W/m² | - |
| 1778341209 | 16.67° C | 54% | 1018 hPa | 0 mm | - | 219 W/m² | - |
| 1778341029 | 16.67° C | 54% | 1018.1 hPa | 0 mm | - | 182 W/m² | - |
| 1778340849 | 16.67° C | 54% | 1017.9 hPa | 0 mm | - | 298 W/m² | - |
| 1778340669 | 16.67° C | 55% | 1018.3 hPa | 0 mm | - | 384 W/m² | - |
| 1778340489 | 16.67° C | 55% | 1018.2 hPa | 0 mm | - | 193 W/m² | - |
| 1778340309 | 16.67° C | 55% | 1018.4 hPa | 0 mm | - | 424 W/m² | - |
| 1778340129 | 16.67° C | 54% | 1018.3 hPa | 0 mm | - | 302 W/m² | - |
| 1778339949 | 16.67° C | 54% | 1018.5 hPa | 0 mm | - | 133 W/m² | - |
| 1778339769 | 16.67° C | 55% | 1018.2 hPa | 0 mm | - | 394 W/m² | - |
| 1778339589 | 16.67° C | 56% | 1018.6 hPa | 0 mm | - | 389 W/m² | - |
| 1778339409 | 16.11° C | 58% | 1018.4 hPa | 0 mm | - | 409 W/m² | - |
| 1778339229 | 16.11° C | 57% | 1018.4 hPa | 0 mm | - | 147 W/m² | - |
| 1778339049 | 16.11° C | 55% | 1018.5 hPa | 0 mm | - | 193 W/m² | - |
| 1778338869 | 16.67° C | 55% | 1018.5 hPa | 0 mm | - | 157 W/m² | - |
| 1778338689 | 16.11° C | 55% | 1018.5 hPa | 0 mm | - | 256 W/m² | - |
| 1778338509 | 16.67° C | 54% | 1018.6 hPa | 0 mm | - | 193 W/m² | - |
| 1778338329 | 16.67° C | 55% | 1018.6 hPa | 0 mm | - | 365 W/m² | - |
| 1778338149 | 16.67° C | 54% | 1018.6 hPa | 0 mm | - | 213 W/m² | - |
| 1778337969 | 17.22° C | 54% | 1018.7 hPa | 0 mm | - | 557 W/m² | - |
| 1778337789 | 17.22° C | 53% | 1018.6 hPa | 0 mm | - | 266 W/m² | - |
| 1778337609 | 17.22° C | 52% | 1018.7 hPa | 0 mm | - | 567 W/m² | - |
| 1778337429 | 17.78° C | 52% | 1018.6 hPa | 0 mm | - | 349 W/m² | - |
| 1778337249 | 17.22° C | 52% | 1018.9 hPa | 0 mm | - | 567 W/m² | - |
* Rain latest hour (hover to see other rain measurements)
** Current wind speed in m/s (hover to see current wind gust speed)